Location: Cuzcurrita-R�o Tir�n
(42.5415°N, 2.9642°W)
Time: 01:51:41
(UTC+00:00)

OE (NEXTSAT) - Pass Details

Date: 17 January 2021
Orbit: 426 x 435 km, 46.0° (Epoch: 08 March)

Event Time Altitude Azimuth Distance (km) Brightness Sun altitude
Rises 18:44:29 0° 241° (WSW) 2,374 9.5 -17.7°
Reaches altitude 10° 18:46:36 10° 239° (WSW) 1,512 8.2 -18.1°
Maximum altitude 18:49:59 70° 156° (SSE) 456 4.3 -18.7°
Enters shadow 18:50:19 63° 113° (ESE) 478 4.2 -18.8°
